[[{"header":{"parameterUnit":"m.s-1","parameterCategory":1,"la1":30.2991,"la2":30.254,"lo1":-89.0895,"lo2":-89.0444,"dx":0.0017,"dy":0.0017,"nx":28,"ny":28,"refTime":"2022-11-16T03:00:00:Z","depth":0,"parameterNumber":2,"parameterNumberName":"U-component_of_WINDS"},"data":[0,0,0,0,0,0,0,0,0,0,0,0,0,0,0,0,0,0,0,0,0,0,0,0,0,0,0,0,0,0,0,0,0,0,0,0,0,0,0,0,0,0,0,0,0,0,0,0,0,0,0,0,0,0,0,0,0,0,-0.6135,-0.6135,0,-0.6152,-0.6152,-0.6152,-0.6112,-0.6111,-0.611,-0.6108,-0.6128,-0.613,-0.6132,0,0,0,0,0,0,0,0,0,0,0,0,0,-0.6071,-0.6072,-0.6135,-0.6135,-0.6136,-0.6152,-0.6152,-0.6152,-0.6112,-0.6111,-0.6109,-0.6108,-0.6128,-0.613,-0.6132,0,0,0,0,0,0,0,0,0,0,0,0,0,-0.6095,-0.6073,-0.6135,-0.6118,-0.6116,-0.6152,-0.6152,-0.6152,-0.6113,-0.6111,-0.6109,-0.6107,-0.6127,-0.6129,-0.6132,-0.6186,0,0,-0.614,-0.6141,0,0,0,0,0,0,0,0,-0.6093,-0.6097,-0.612,-0.6119,-0.6117,-0.6128,-0.6137,-0.6164,-0.6113,-0.6114,-0.6108,-0.6106,-0.613,-0.6132,-0.6139,-0.6187,-0.6188,-0.614,-0.6142,-0.6143,-0.6144,0,0,0,0,0,0,0,-0.6092,-0.6096,-0.6142,-0.612,-0.6119,-0.611,-0.6111,-0.6142,-0.6133,-0.6114,-0.6111,-0.6113,-0.6129,-0.6137,-0.614,-0.6188,-0.614,-0.6142,-0.6144,-0.6145,-0.6281,-0.6283,0,0,0,0,0,0,-0.6092,-0.6095,-0.6141,-0.6142,-0.61,-0.6112,-0.6114,-0.6127,-0.6132,-0.6131,-0.6115,-0.6112,-0.6134,-0.6137,-0.614,-0.6204,-0.6143,-0.6145,-0.6147,-0.6279,-0.6281,-0.6284,0,0,0,0,0,0,-0.6091,-0.6097,-0.6141,-0.6118,-0.6123,-0.6115,-0.613,-0.6128,-0.6136,-0.6133,-0.6131,-0.6125,-0.6132,-0.6137,-0.6175,-0.6204,-0.6146,-0.6149,-0.6277,-0.628,-0.6283,-0.6333,0,0,0,0,0,0,-0.6089,-0.6096,-0.6116,-0.6119,-0.6124,-0.6175,-0.6132,-0.613,-0.614,-0.6136,-0.6142,-0.6141,-0.6131,-0.6171,-0.6177,-0.6207,-0.6151,-0.6274,-0.6278,-0.6282,-0.6329,-0.6337,-0.6345,0,0,0,0,0,-0.6087,-0.6131,-0.6118,-0.6124,-0.6149,-0.6177,-0.618,-0.6167,-0.6143,-0.6163,-0.6161,-0.6141,-0.62,-0.6175,-0.6182,-0.6213,-0.6272,-0.6277,-0.6281,-0.6325,-0.6336,-0.6345,0,0,0,0,0,0,-0.6133,-0.6131,-0.6116,-0.6162,-0.617,-0.617,-0.6195,-0.6178,-0.6194,-0.6189,-0.6172,-0.6174,-0.6216,-0.6218,-0.6191,-0.6265,-0.6232,-0.6238,-0.6263,-0.6273,-0.6281,-0.628,-0.6153,0,0,0,0,0,-0.6149,-0.617,-0.6167,-0.6208,-0.6212,-0.6203,-0.6214,-0.6203,-0.6211,-0.6215,-0.6215,-0.6224,-0.6245,-0.6259,-0.6277,-0.6328,-0.6329,-0.6352,-0.6361,-0.6367,-0.6373,-0.6401,-0.6411,-0.6299,-0.6299,-0.6299,0,0,-0.6181,-0.6182,-0.6197,-0.6217,-0.6222,-0.6245,-0.6206,-0.6233,-0.6251,-0.6219,-0.6255,-0.6256,-0.6265,-0.631,-0.6329,-0.6313,-0.6404,-0.6373,-0.6379,-0.6381,-0.6407,-0.6417,-0.6427,-0.6302,-0.6302,-0.6301,0,0,-0.6252,-0.6255,-0.6289,-0.6294,-0.6301,-0.6295,-0.6303,-0.6306,-0.6305,-0.634,-0.6317,-0.6338,-0.6373,-0.6381,-0.6389,-0.6462,-0.6444,-0.6468,-0.6511,-0.6538,-0.6547,-0.6555,-0.6582,-0.6592,-0.6474,-0.6474,-0.6474,0,-0.6292,-0.6326,-0.6309,-0.6337,-0.6347,-0.6318,-0.6353,-0.6359,-0.6372,-0.638,-0.636,-0.6404,-0.6408,-0.6454,-0.6472,-0.6479,-0.6489,-0.6468,-0.6547,-0.6555,-0.6562,-0.6587,-0.6597,-0.6477,-0.6477,-0.6476,-0.6476,0,-0.6375,-0.6399,-0.6426,-0.6438,-0.6451,-0.6482,-0.647,-0.6485,-0.6472,-0.6468,-0.6505,-0.6508,-0.6527,-0.6537,-0.6525,-0.6582,-0.6571,-0.655,-0.6516,-0.6576,-0.66,-0.6609,-0.6481,-0.648,-0.6479,-0.6479,0,0,-0.6478,-0.648,-0.649,-0.6495,-0.65,-0.6519,-0.6549,-0.6566,-0.658,-0.6589,-0.6615,-0.6645,-0.6625,-0.6634,-0.6623,-0.6646,-0.6705,-0.6622,-0.6622,-0.6638,-0.6768,-0.6785,-0.6797,-0.6692,-0.6694,-0.6695,-0.6767,0,-0.6549,-0.66,-0.6585,-0.6637,-0.6659,-0.6631,-0.6657,-0.6664,-0.666,-0.6679,-0.6675,-0.6697,-0.6668,-0.6674,-0.6695,-0.6693,-0.6731,-0.6687,-0.6717,-0.6718,-0.6717,-0.6809,-0.6827,-0.6896,-0.6776,-0.6778,-0.6779,0,-0.664,-0.6652,-0.6706,-0.6707,-0.6716,-0.674,-0.6754,-0.6772,-0.6779,-0.6774,-0.6784,-0.6768,-0.6798,-0.6763,-0.6804,-0.6775,-0.6786,-0.6786,-0.6789,-0.6792,-0.6754,-0.6817,-0.6917,-0.6928,-0.6793,-0.6792,-0.6791,0,-0.6711,-0.6741,-0.6777,-0.6782,-0.6784,-0.6802,-0.6803,-0.6808,-0.6819,-0.6832,-0.6839,-0.6855,-0.6865,-0.6878,-0.6867,-0.6842,-0.691,-0.6874,-0.6909,-0.6909,-0.6926,-0.6926,-0.7031,-0.6931,-0.693,-0.693,-0.693,0,-0.6794,-0.6828,-0.6809,-0.6832,-0.6869,-0.6851,-0.6889,-0.6887,-0.6891,-0.6913,-0.689,-0.6911,-0.6894,-0.6914,-0.6905,-0.6941,-0.6945,-0.6943,-0.6941,-0.6947,-0.6947,-0.6955,-0.6951,-0.6933,-0.6932,-0.6932,-0.6931,0,-0.6881,-0.6869,-0.6907,-0.6905,-0.6905,-0.6933,-0.6931,-0.6952,-0.6946,-0.6974,-0.698,-0.6971,-0.6993,-0.6982,-0.7006,-0.6999,-0.7047,-0.7037,-0.7045,-0.7043,-0.7079,-0.7076,-0.7195,-0.721,-0.7098,-0.7099,-0.7099,0,-0.6935,-0.696,-0.6961,-0.6973,-0.6976,-0.6997,-0.7008,-0.6991,-0.7003,-0.7012,-0.7032,-0.7052,-0.7067,-0.7104,-0.71,-0.7117,-0.7109,-0.7149,-0.7112,-0.7116,-0.7111,-0.711,-0.7113,-0.7157,-0.7159,-0.716,-0.7161,0,-0.7032,-0.7025,-0.7042,-0.7056,-0.707,-0.708,-0.7089,-0.7101,-0.7084,-0.7099,-0.7121,-0.7133,-0.7156,-0.7176,-0.7191,-0.7193,-0.7175,-0.7172,-0.7181,-0.7188,-0.7192,-0.7192,-0.7067,-0.717,-0.7169,-0.7168,-0.7168,-0.7167,-0.7106,-0.7127,-0.713,-0.7149,-0.7154,-0.7162,-0.7182,-0.7178,-0.7195,-0.7212,-0.7201,-0.7227,-0.7232,-0.725,-0.7255,-0.7275,-0.7259,-0.7273,-0.7276,-0.728,-0.7286,-0.7187,-0.7278,-0.7277,-0.7277,-0.7277,-0.7277,0,-0.7203,-0.7204,-0.7221,-0.7234,-0.7249,-0.7228,-0.7236,-0.7251,-0.7273,-0.7279,-0.7294,-0.7319,-0.7338,-0.7335,-0.7353,-0.737,-0.7362,-0.7375,-0.7375,-0.7376,-0.7298,-0.7289,-0.7381,-0.7381,-0.7381,-0.7381,-0.7381,-0.7381,-0.7256,-0.7291,-0.7284,-0.7322,-0.7322,-0.7346,-0.7353,-0.7361,-0.7366,-0.7394,-0.741,-0.7407,-0.7409,-0.7427,-0.7444,-0.7442,-0.745,-0.7467,-0.7463,-0.7391,-0.7381,-0.7371,-0.7363,-0.7469,-0.7469,-0.7539,-0.754,-0.754]},{"header":{"parameterUnit":"m.s-1","parameterCategory":1,"la1":30.2991,"la2":30.254,"lo1":-89.0895,"lo2":-89.0444,"dx":0.0017,"dy":0.0017,"nx":28,"ny":28,"refTime":"2022-11-16T03:00:00:Z","depth":0,"parameterNumber":3,"parameterNumberName":"V-component_of_WINDS"},"data":[0,0,0,0,0,0,0,0,0,0,0,0,0,0,0,0,0,0,0,0,0,0,0,0,0,0,0,0,0,0,0,0,0,0,0,0,0,0,0,0,0,0,0,0,0,0,0,0,0,0,0,0,0,0,0,0,0,0,-6.4395,-6.4396,0,-6.4482,-6.4483,-6.4484,-6.4411,-6.4408,-6.4405,-6.4403,-6.4487,-6.4492,-6.4497,0,0,0,0,0,0,0,0,0,0,0,0,0,-6.4161,-6.4166,-6.4394,-6.4396,-6.4397,-6.4482,-6.4483,-6.4484,-6.4412,-6.4408,-6.4405,-6.4401,-6.4485,-6.4491,-6.4497,0,0,0,0,0,0,0,0,0,0,0,0,0,-6.4257,-6.4168,-6.4394,-6.4371,-6.437,-6.4481,-6.4483,-6.4484,-6.4413,-6.4408,-6.4404,-6.4399,-6.4483,-6.4491,-6.4498,-6.4636,0,0,-6.4522,-6.4525,0,0,0,0,0,0,0,0,-6.4252,-6.4266,-6.4373,-6.4373,-6.4372,-6.4431,-6.4432,-6.4535,-6.4414,-6.4396,-6.4402,-6.4397,-6.4472,-6.448,-6.4506,-6.464,-6.4643,-6.4522,-6.4527,-6.453,-6.4532,0,0,0,0,0,0,0,-6.4245,-6.4261,-6.4429,-6.4375,-6.4374,-6.4355,-6.4364,-6.4451,-6.4458,-6.4398,-6.4392,-6.4404,-6.447,-6.4499,-6.4508,-6.4645,-6.4522,-6.4529,-6.4533,-6.4536,-6.4896,-6.4901,0,0,0,0,0,0,-6.4241,-6.4256,-6.4426,-6.4431,-6.43,-6.4363,-6.4372,-6.4417,-6.4457,-6.4459,-6.4408,-6.44,-6.4488,-6.4499,-6.451,-6.4675,-6.453,-6.4537,-6.4542,-6.4891,-6.4898,-6.4903,0,0,0,0,0,0,-6.4237,-6.4257,-6.4423,-6.4343,-6.4362,-6.4372,-6.4422,-6.4421,-6.4449,-6.4465,-6.4465,-6.4436,-6.4485,-6.45,-6.4606,-6.4677,-6.4541,-6.4547,-6.4886,-6.4893,-6.49,-6.5006,0,0,0,0,0,0,-6.423,-6.4256,-6.4309,-6.4345,-6.4367,-6.4518,-6.4426,-6.4426,-6.4463,-6.4454,-6.4492,-6.4493,-6.4483,-6.4595,-6.4613,-6.4685,-6.4553,-6.4879,-6.4889,-6.4898,-6.4996,-6.5016,-6.5033,0,0,0,0,0,-6.4222,-6.4334,-6.4312,-6.4333,-6.4434,-6.4522,-6.4535,-6.4522,-6.4469,-6.4523,-6.4533,-6.4492,-6.4666,-6.4606,-6.4627,-6.4702,-6.4875,-6.4886,-6.4897,-6.4988,-6.5012,-6.5033,0,0,0,0,0,0,-6.4305,-6.4338,-6.4315,-6.4441,-6.448,-6.451,-6.4577,-6.4548,-6.4601,-6.459,-6.457,-6.4579,-6.4691,-6.4706,-6.4639,-6.4837,-6.4762,-6.4778,-6.4824,-6.4847,-6.4865,-6.4859,-6.456,0,0,0,0,0,-6.4339,-6.4409,-6.4433,-6.4543,-6.4564,-6.4567,-6.4605,-6.4592,-6.463,-6.4646,-6.4663,-6.4701,-6.4764,-6.4806,-6.4865,-6.4997,-6.5005,-6.5059,-6.5077,-6.5093,-6.5107,-6.5179,-6.5204,-6.494,-6.494,-6.494,0,0,-6.4407,-6.4434,-6.448,-6.456,-6.4589,-6.4661,-6.4581,-6.4661,-6.4715,-6.4657,-6.476,-6.4774,-6.4814,-6.4935,-6.4989,-6.4951,-6.5181,-6.5107,-6.5119,-6.5125,-6.5193,-6.5218,-6.5241,-6.4948,-6.4946,-6.4945,0,0,-6.4571,-6.4598,-6.4693,-6.4724,-6.4768,-6.477,-6.4793,-6.4828,-6.4836,-6.4939,-6.4898,-6.496,-6.5069,-6.51,-6.513,-6.5307,-6.5272,-6.5326,-6.5423,-6.5494,-6.5515,-6.5533,-6.5597,-6.562,-6.534,-6.534,-6.534,0,-6.465,-6.476,-6.4745,-6.4829,-6.4866,-6.4819,-6.4915,-6.4945,-6.5005,-6.5031,-6.4989,-6.5126,-6.5149,-6.5277,-6.5321,-6.5346,-6.5371,-6.5322,-6.5513,-6.5531,-6.5548,-6.5609,-6.5633,-6.5346,-6.5346,-6.5345,-6.5344,0,-6.4856,-6.4933,-6.5004,-6.5067,-6.5111,-6.5201,-6.5198,-6.5245,-6.5228,-6.5234,-6.5339,-6.5366,-6.5431,-6.5459,-6.5442,-6.5585,-6.5561,-6.5516,-6.544,-6.558,-6.5637,-6.566,-6.5356,-6.5353,-6.5351,-6.535,0,0,-6.5074,-6.5129,-6.5156,-6.5184,-6.523,-6.5288,-6.5375,-6.544,-6.5481,-6.5524,-6.5597,-6.5691,-6.565,-6.5684,-6.567,-6.5732,-6.5872,-6.568,-6.5681,-6.5716,-6.6032,-6.6067,-6.6094,-6.5849,-6.5853,-6.5857,-6.6029,0,-6.5241,-6.5395,-6.5385,-6.5529,-6.56,-6.5556,-6.5632,-6.5668,-6.5676,-6.5736,-6.5744,-6.5812,-6.5752,-6.5773,-6.5832,-6.5843,-6.5936,-6.583,-6.5916,-6.5919,-6.5909,-6.6124,-6.616,-6.6322,-6.6051,-6.6055,-6.6058,0,-6.5456,-6.551,-6.5662,-6.5699,-6.5728,-6.5797,-6.5856,-6.5914,-6.5954,-6.5955,-6.5995,-6.5971,-6.6057,-6.5979,-6.6098,-6.6027,-6.6061,-6.6071,-6.6077,-6.6086,-6.5998,-6.6139,-6.6373,-6.6398,-6.6092,-6.609,-6.6087,0,-6.5602,-6.5712,-6.5817,-6.5843,-6.5888,-6.5938,-6.5959,-6.5994,-6.6034,-6.6085,-6.6111,-6.617,-6.6203,-6.6249,-6.6242,-6.6185,-6.6364,-6.6284,-6.6368,-6.6368,-6.6408,-6.6406,-6.6652,-6.6428,-6.6428,-6.6427,-6.6427,0,-6.579,-6.5885,-6.5884,-6.5949,-6.6054,-6.6041,-6.6145,-6.616,-6.6192,-6.6258,-6.6223,-6.6286,-6.6272,-6.6334,-6.6328,-6.6429,-6.6443,-6.6447,-6.6444,-6.6451,-6.6451,-6.6474,-6.6463,-6.6434,-6.6432,-6.6431,-6.643,0,-6.5971,-6.5974,-6.6087,-6.6121,-6.6132,-6.6208,-6.6237,-6.6298,-6.6303,-6.6388,-6.6407,-6.6415,-6.6487,-6.6484,-6.6564,-6.656,-6.6684,-6.6668,-6.6672,-6.6669,-6.6753,-6.6746,-6.7024,-6.706,-6.6811,-6.6814,-6.6816,0,-6.6091,-6.6164,-6.6207,-6.625,-6.6275,-6.6345,-6.6386,-6.6375,-6.6419,-6.6471,-6.6526,-6.6595,-6.6649,-6.6765,-6.6777,-6.6839,-6.6825,-6.6918,-6.6833,-6.6838,-6.6828,-6.6824,-6.6832,-6.6935,-6.6937,-6.694,-6.6941,0,-6.6305,-6.6304,-6.6366,-6.6429,-6.648,-6.6529,-6.6573,-6.661,-6.6604,-6.6655,-6.6729,-6.6772,-6.6855,-6.6924,-6.6983,-6.7002,-6.6972,-6.6968,-6.6991,-6.6999,-6.6999,-6.7002,-6.6719,-6.6962,-6.696,-6.6958,-6.6957,-6.6956,-6.6461,-6.6524,-6.6565,-6.6636,-6.6668,-6.6711,-6.6771,-6.6785,-6.6847,-6.6916,-6.6904,-6.6988,-6.7025,-6.7102,-6.7127,-6.7191,-6.7158,-6.7191,-6.7199,-6.7208,-6.7218,-6.6988,-6.7202,-6.7201,-6.72,-6.72,-6.72,0,-6.6675,-6.6699,-6.6764,-6.6829,-6.6885,-6.6852,-6.69,-6.6948,-6.7022,-6.7061,-6.7116,-6.7202,-6.7268,-6.7286,-6.735,-6.7398,-6.7386,-6.7415,-6.7412,-6.7418,-6.7243,-6.7218,-6.7425,-6.7425,-6.7425,-6.7425,-6.7425,-6.7425,-6.6793,-6.6898,-6.6902,-6.7023,-6.7046,-6.7129,-6.716,-6.7199,-6.723,-6.7328,-6.7384,-6.7396,-6.7426,-6.7492,-6.7552,-6.7555,-6.7581,-6.7617,-6.7615,-6.7452,-6.743,-6.7408,-6.7385,-6.7623,-6.7623,-6.7784,-6.7786,-6.7787]}]]